Regional Weather Roundup
Issued by NWS Boston, MA

Current Version | Previous Version | Text Only | Print | Product List | Glossary Off
Versions: 1 2 3 4 5 6 7 8 9 10 11 12 13 14 15 16 17 18 19 20 21 22 23 24 25 26 27
000 ASUS41 KBOX 300910 RWRBOX REGIONAL WEATHER ROUNDUP NATIONAL WEATHER SERVICE TAUNTON MA 500 AM EDT TUE MAY 30 2017 NOTE: "FAIR" INDICATES FEW OR NO CLOUDS BELOW 12,000 FEET WITH NO SIGNIFICANT WEATHER AND/OR OBSTRUCTIONS TO VISIBILITY. MAZALL-301000- EASTERN MASSACHUSETTS CITY SKY/WX TMP DP RH WIND PRES REMARKS BOSTON CLOUDY 49 47 93 CALM 30.17R BEVERLY FOG 49 48 97 CALM 30.17R VSB 1/2 LAWRENCE CLOUDY 50 47 89 CALM 30.19R BEDFORD CLOUDY 48 45 89 CALM 30.16R BLUE HILL N/A 47 46 97 CALM 30.14S NORWOOD CLOUDY 50 49 96 CALM 30.16S MARSHFIELD CLOUDY 50 50 100 CALM 30.16S PLYMOUTH CLOUDY 49 48 97 N5 30.16S TAUNTON CLOUDY 50 47 89 CALM 30.16R NEW BEDFORD CLOUDY 49 48 97 CALM 30.15S $$ MAZALL-301000- CAPE COD AND THE ISLANDS CITY SKY/WX TMP DP RH WIND PRES REMARKS FALMOUTH CLOUDY 50 50 100 MISG 30.16 HYANNIS CLOUDY 51 50 96 N3 30.14R CHATHAM CLOUDY 50 50 100 CALM 30.16R FOG PROVINCETOWN CLOUDY 49 49 100 N5 30.17R NANTUCKET CLOUDY 50 49 96 N5 30.15R FOG MARTHAS VNYRD CLOUDY 52 50 93 CALM 30.15R $$ MAZALL-301000- CENTRAL AND WESTERN MASSACHUSETTS CITY SKY/WX TMP DP RH WIND PRES REMARKS WORCESTER FOG 46 45 96 CALM 30.15S VSB 1/4 FITCHBURG CLOUDY 50 48 93 E3 30.17R ORANGE CLOUDY 49 48 97 SE5 30.14S SPRINGFIELD CLOUDY 52 50 93 CALM 30.13S WESTFIELD CLOUDY 51 51 100 CALM 30.14S FOG NORTH ADAMS CLOUDY 52 49 89 VRB7 30.10S $$ RIZALL-301000- RHODE ISLAND CITY SKY/WX TMP DP RH WIND PRES REMARKS PROVIDENCE CLOUDY 50 50 100 N5 30.17R NEWPORT CLOUDY 50 50 100 N5 30.15S BLOCK ISLAND CLOUDY 51 50 96 NE7 30.15S SMITHFIELD FOG 48 48 100 CALM 30.16S VSB 1/4 WESTERLY CLOUDY 52 50 93 NE3 30.16S $$ CTZALL-301000- CONNECTICUT CITY SKY/WX TMP DP RH WIND PRES REMARKS BRADLEY INTL DRIZZLE 52 50 93 SE6 30.14S HARTFORD CLOUDY 53 50 89 SE3 30.15R BRIDGEPORT CLOUDY 55 51 86 E6 30.14S DANBURY CLOUDY 51 51 100 SE6 30.15R FOG GROTON CLOUDY 52 49 89 NE5 30.15R NEW HAVEN CLOUDY 53 50 89 SE3 30.15R CHESTER CLOUDY 52 50 93 MISG 30.15R MERIDEN CLOUDY 52 50 93 S6 30.15R WILLIMANTIC CLOUDY 53 50 89 CALM 30.16S OXFORD N/A 52 46 82 S5 30.15R $$ MEZ002-015-021-024-NHZ003-005-008-011-012-014-VTZ005-008-301000- NORTHERN NEW ENGLAND CITY SKY/WX TMP DP RH WIND PRES REMARKS PORTLAND ME CLOUDY 48 47 96 VRB5 30.17R FOG BANGOR ME MOCLDY 46 45 96 CALM 30.17R CONCORD NH CLOUDY 47 45 93 CALM 30.17R MANCHESTER NH CLOUDY 48 45 89 CALM 30.16R NASHUA NH CLOUDY 48 47 96 CALM 30.18R PORTSMOUTH NH CLOUDY 47 46 99 CALM 30.17R FOG JAFFREY NH CLOUDY 47 47 100 CALM 30.14S KEENE NH CLOUDY 49 47 93 CALM 30.15R BURLINGTON VT PTCLDY 57 50 77 S15G24 30.02S MT. WASHINGTON CLOUDY 41 39 93 W17 N/A $$ NYZ052-076-301000- EASTERN NEW YORK CITY SKY/WX TMP DP RH WIND PRES REMARKS ALBANY CLOUDY 56 51 84 S10 30.07F NEW YORK CITY CLOUDY 56 52 86 SE7 30.13S $$ ANZALL-301000- MARINE OBSERVATIONS STATION/POSITION TIME TEMP WIND PRES VSBY WAVE AIR SEA DIR/SP/G HT/PER (UTC) (F) (DEG/KT/KT) (MB) (MI) (FT/S) BOSTON BUOY NOT AVBL BUZZARDS BAY 0800 51 360/ 6/ 8 1021.3R NANTUCKET SOUND NOT AVBL MASS BAY-STELLWA 0804 48 50 10/ 6/ 8 1020.1S 3/ 7 ISLE OF SHOALS 0800 47 30/ 5/ 6 1021.0R S OF BLOCK IS 0855 53 N/A 4/ 8 $$ ......................KEY......................... SKY/WX - SKY CONDITION/PRESENT WEATHER TMP - TEMPERATURE IN FAHRENHEIT DWPT - DEWPOINT IN FAHRENHEIT RH - RELATIVE HUMIDITY IN PERCENT WIND - DIRECTION AND SPEED IN MPH PRES - MEAN SEA LEVEL PRESSURE IN INCHES OF HG WCI - WIND CHILL INDEX VSB - VISIBILITY IN MILES HX - HEAT INDEX TC - TEMPERATURE IN CELSIUS VRB - VARIABLE WIND DIRECTION N/A - NOT AVAILABLE

USA.gov is the U.S. government's official web portal to all federal, state and local government web resources and services.